WGS F4 (USA 233)

导读 | 豆包AI

WGS F4(USA 233)是美国于2012年1月20日发射的军用宽带通信卫星,隶属于美军宽带全球卫星通信系统(WGS)Block II批次。该卫星基于波音702HP平台建造,采用X波段和Ka波段通信,新增独立信道后通信容量提升至6Gbps,单星性能远超前代DSCS卫星。它可为美军及盟友在南北纬65°范围提供高速宽带服务,支持无人机、战术通信等军事任务,设计寿命14年,是美军现役宽带通信网络的核心节点之一,代表了当时军用宽带通信卫星的先进水平。

Basic Information
目录编号:
38070
目录名称:
WGS F4 (USA 233)
国际标识:
2012-003A
轨道中心:
EARTH
卫星名称:
WGS F4 (USA 233)
卫星全名:
--
卫星状态:
在轨 (已飞行5215 天)
发射日期:
2012-01-20 UTC
国别 :
美国 (US)
星等 :
--
Orbit Information
数据来源 国际轨道数据 AOE轨道数据
星历时间 2026-05-01T06:22:26+0800
7小时前
查看轨道信息
2026-05-01T03:00:00+0800
11小时前
查看轨道信息
半长轴 42164.7km 42164.7km
偏心率 0.0000417 0.0000204
轨道倾角 0.019° 0.017°
近地点辐角 216.809° 216.061°
升交点赤经 243.329° 234.740°
平近点角 182.732° 141.319°
近地点 35784.804km 35785.702km
远地点 35788.322km 35787.424km
周期 1436.095分钟 1436.095分钟
每日圈数 1.002719 1.002719
Detailed Information
使用方式:
暂无
2D Orbit Map
3D Orbit Map
Orbit Altitude Analysis Chart
Orbit Inclination Analysis Chart
Orbit Comprehensive Analysis Chart
View Comprehensive Chart